Weather in Sredniy Vasyugan

Russia / Tomsk District     59°13′15″N   78°14′14″E
temp.,
°C
wind,
m/s
gust,
m/s
humid.,
%
clouds,
%
prec.,
mm/h
press.,
hPa
HPBL,
m
4 march, thu
thu401:00−11ssw61193100 0.8 1007878
04:00−12ssw51193100 0.6 1006704
07:00−11s41193100 1.0 1006624
10:00−8s41094100 0.6 1004658
13:00−5ssw4893100 1.1 1004781
16:00−3s4894100 0.4 1003735
19:00−3s3996100 0.9 1001589
22:00−2sse3898100 0.8 999353
5 march, fri
fri501:00−2s51297100 2.2 998807
04:00−2s61295100 1.4 996821
07:00−2s51296100 1.9 996797
10:00−2wsw4796100 0.4 996531
13:00−1wsw5991100 0.8 997843
16:00−3sw5888100 0.2 999993
19:00−4sw4989100 0.3 1002877
22:00−6ssw51094100 0.4 1001798
6 march, sat
sat601:00−7ssw3995100 0.6 1001499
04:00−7s2896100 0.4 1000312
07:00−5sw31096100 0.9 1001498
10:00−5sw4109493 0.1 1000498
13:00−3sw478893 0.3 9991008
16:00−2sw4786100 0.3 9981035
19:00−5wsw269092 0.3 999145
22:00−8wsw4129323 0.0 1000485
7 march, sun
sun701:00−9wsw5129157 0.1 1002615
04:00−11wsw51292100 0.1 1004590
07:00−12sw41292100 0.1 1006558
10:00−12wsw51192100 0.1 1007566
13:00−10wsw4888100 0.1 1009701
16:00−8sw3684100 0.0 1010859
19:00−9sse2493100 0.0 1009102
22:00−10se2696100 0.1 1007144
8 march, mon
mon801:00−9ene2596100 0.9 1005215
04:00−9nne3696100 0.9 1003288
07:00−12nnw2497100 1.1 100594
10:00−11wnw239693 0.1 1006119
13:00−9wnw359294 0.3 1008494
16:00−10w3587100 0.1 1009672
19:00−13w239392 0.1 101138
22:00−17w22964 0.0 101320